Вернуться в каталог

CZ-4 DEB

АктивенSSO
NORAD 26236·DEBRIS·🇨🇳 China

Запущен Oct 14, 1999 с Taiyuan Satellite Launch Center

Loading…

Ближайшие Пролёты (ближайшие 24 часа)

TLE

СвежийSource: Space-Track

Эпоха: Sep 14, 2026, 09:41 UTC

1 26236U 99057EA  26257.40375223  .00000199  00000-0  75435-4 0  9994
2 26236  98.6972 309.4575 0088271 233.0829 138.3714 14.39752376389383

Отслеживайте CZ-4 DEB в реальном времени с AllMySat

Download on the App Store